Regional Weather Roundup
Issued by NWS

Home | Current Version | Previous Version | Text Only | Print | Product List | Glossary On
Versions: 1 2 3 4 5 6 7 8 9 10 11 12 13 14 15 16 17 18 19 20 21 22 23 24 25 26 27 28 29 30 31 32 33 34 35 36 37 38 39 40 41 42 43 44 45 46 47 48 49 50
000
ASUS43 KMPX 230810
RWRMN
WEATHER ROUNDUP FOR MINNESOTA
NATIONAL WEATHER SERVICE TWIN CITIES/CHANHASSEN MN
300 AM CDT SUN APR 23 2017


NOTE: "FAIR" INDICATES FEW OR NO CLOUDS BELOW 12,000 FEET WITH NO
SIGNIFICANT WEATHER AND/OR OBSTRUCTIONS TO VISIBILITY. N/A MEANS
CURRENT SKY AND/OR WEATHER CONDITIONS ARE NOT AVAILABLE.

MNZ060>063-068>070-230900-
   Twin Cities Metro

CITY           SKY/WX    TMP DP  RH WIND       PRES   REMARKS
TWIN CITIES    CLEAR     53  35  50 SW5       30.07S
ST PAUL        CLOUDY    49  42  77 CALM      30.07F
CRYSTAL        MOCLDY    52  35  52 SW6       30.05F
BLAINE         PTCLDY    55  36  47 SW7       30.05F
LAKEVILLE      CLEAR     50  37  62 SW5       30.07F
EDEN PRAIRIE   CLEAR     51  36  56 W7        30.06F
SOUTH ST PAUL  CLEAR     51  36  57 SW3       30.06F
LAKE ELMO      FAIR      43  39  87 CALM      30.07S
$$
MNZ001>005-007-008-013>017-022>024-027-028-230900-
   Northwest Minnesota

CITY           SKY/WX    TMP DP  RH WIND       PRES   REMARKS
BEMIDJI        CLOUDY    32  29  88 N13G18    30.17R WCI  22
HALLOCK        CLOUDY    30  19  64 NE10      30.27S WCI  21
ROSEAU         PTCLDY    30  21  69 N13       30.25R WCI  20
WARROAD        CLOUDY    30  23  74 N12       30.25S WCI  21
THIEF RVR FALL CLOUDY    31  25  78 NE13      30.23R WCI  21
CROOKSTON      CLOUDY    32  25  74 NE12      30.23S WCI  23
FOSSTON        CLOUDY    32  28  86 N12G17    30.19S WCI  23
DETROIT LAKES  CLOUDY    37  36  93 NE7       30.13F
MOORHEAD       CLOUDY    36  34  93 N20       30.17S
PARK RAPIDS    CLOUDY    38  31  76 NE13      30.13S
MAHNOMEN       LGT RAIN  33  32  96 NE13      30.15F WCI  24
$$
MNZ006-009>011-018-025>026-230900-
   North Central Minnesota

CITY           SKY/WX    TMP DP  RH WIND       PRES   REMARKS
BAUDETTE       CLOUDY    33  25  72 NE10      30.22R WCI  25
INTL FALLS     CLOUDY    32  22  66 NE12      30.20R WCI  23
WASKISH        CLOUDY    32  30  93 NE6       30.20S WCI  26
BIG FORK       FLURRIES  34  30  86 N6G16     30.16F WCI  29
LONGVILLE      LGT RAIN  36  34  93 N6        30.14R
GRAND RAPIDS   LGT SNOW  33  32  96 N7        30.16R FOG     WCI  27
CRANE LAKE     CLOUDY    30  28  93 N6        30.20S WCI  24
ORR            MIX PCPN  30  27  86 MISG      30.15R
COOK           FLURRIES  32  30  93 N7        30.17R WCI  26
WALKER         LGT SNOW  32  32  99 N5        30.15S WCI  28
$$
MNZ012-019>021-037-230900-
   Northeast Minnesota

CITY           SKY/WX    TMP DP  RH WIND       PRES   REMARKS
DULUTH         LGT RAIN  41  38  89 N10       30.10R
ELY            CLOUDY    32  30  93 N6        30.13R WCI  26
HIBBING        LGT RAIN  35  35 100 N9        30.12S WCI  28
EVELETH        LGT RAIN  37  35  89 N8G17     30.14R
DULUTH HARBOR  DRIZZLE   43  39  87 N10       30.13R
TWO HARBORS    CLOUDY    43  37  81 N6        30.10S
SILVER BAY     LGT RAIN  39  37  93 N5        30.11R
GRAND MARAIS     N/A     39  34  82 NE5       30.12S
G MARAIS ARPRT LGT SNOW  30  27  86 N9        30.08S WCI  22
$$
MNZ029>031-032-039>041-046>048-054>057-064-230900-
   West Central Minnesota

CITY           SKY/WX    TMP DP  RH WIND       PRES   REMARKS
FERGUS FALLS   MIX PCPN  43  36  75 NE7G23    30.11F
WHEATON        MOCLDY    39  36  87 NW9       30.13S
MORRIS         CLOUDY    41  39  93 NW10      30.08S
ALEXANDRIA     CLOUDY    46  39  76 NE12      30.09R
ELBOW LAKE     FAIR      45  39  81 NE13      30.09S
WADENA         CLOUDY    39  34  81 NE13G20   30.11R
GLENWOOD       PTCLDY    46  41  81 MISG      30.08R
APPLETON       PTCLDY    43  37  81 NW8       30.09F
BENSON         CLOUDY    43  37  81 N6        30.10F
ORTONVILLE     CLOUDY    41  36  81 NW12      30.11S
MADISON        PTCLDY    46  41  81 N12       30.10S
WILLMAR        FAIR      50  39  66 W7        30.08S
$$
MNZ033>034-036-042>043-049>051-058-059-230900-
   Central Minnesota

CITY           SKY/WX    TMP DP  RH WIND       PRES   REMARKS
ST CLOUD       CLOUDY    50  39  66 NW5       30.06R
SAUK CENTRE    FAIR      47  40  75 N9        30.07S
PAYNESVILLE    CLOUDY    49  38  66 W6        30.07S
AITKIN         CLOUDY    45  34  65 N15G21    30.10S
PINE RIVER     CLOUDY    39  36  87 N10       30.15S
BRAINERD       CLOUDY    45  37  73 N13       30.11S
STAPLES        CLOUDY    41  36  81 NE8       30.11S
LONG PRAIRIE   MOCLDY    45  37  76 NW8       30.09R
LITTLE FALLS   CLOUDY    46  36  66 NE9       30.09R
LITCHFIELD     CLOUDY    54  39  58 SW6       30.07S
BUFFALO        CLOUDY    51  37  59 CALM      30.07S
MAPLE LAKE     PTCLDY    52  39  62 SW3       30.07S
HUTCHINSON     CLOUDY    51  39  64 SW6       30.09S
$$
MNZ037-044-045-052-053-230900-
   East Central Minnesota

CITY           SKY/WX    TMP DP  RH WIND       PRES   REMARKS
PRINCETON      PTCLDY    52  39  62 W8G16     30.06R
MORA           PTCLDY    46  37  71 NE6       30.09R
CAMBRIDGE      PTCLDY    54  39  58 NW5G16    30.04R
RUSH CITY      MOCLDY    53  37  54 N5        30.06R
MOOSE LAKE     CLOUDY    45  36  70 N10G18    30.09R
HINCKLEY       PTSUNNY   46  37  71 N12       30.08R
CLOQUET        CLOUDY    43  36  75 N8        30.11R
MCGREGOR       CLOUDY    43  37  81 N9        30.12R
$$
MNZ071>073-080-081-089-090-097-098-230900-
   Southwest Minnesota

CITY           SKY/WX    TMP DP  RH WIND       PRES   REMARKS
MONTEVIDEO     CLOUDY    48  37  66 NW10      30.09R
GRANITE FALLS  CLEAR     49  39  68 S12       30.09F
CANBY          PTCLDY    52  37  57 W5G17     30.10R
MARSHALL       CLEAR     52  37  56 SW16      30.09F
REDWOOD FALLS  CLEAR     52  36  54 SW10      30.09S
OLIVIA         CLOUDY    45  36  70 SW8       30.08S
PIPESTONE      CLEAR     43  34  70 SW6       30.11S
WINDOM         CLEAR     46  36  66 SW5       30.11F
WORTHINGTON    CLEAR     50  33  52 SW9       30.13F
JACKSON        CLEAR     48  34  57 SW9       30.12F
TRACY          CLEAR     52  38  58 SW13      30.10S
SLAYTON        CLEAR     45  36  70 SW7       30.12F
$$
MNZ065>067-074>077-082>085-091>093-230900-
   South Central Minnesota

CITY           SKY/WX    TMP DP  RH WIND       PRES   REMARKS
MANKATO        CLEAR     52  36  54 W7        30.10F
NEW ULM        CLEAR     48  37  66 W9        30.09F
ST JAMES       CLEAR     45  37  76 SW6       30.11F
FAIRMONT       CLEAR     49  37  63 W8        30.12F
GLENCOE        CLEAR     51  40  65 SW6       30.07F
FARIBAULT      PTCLDY    48  39  71 CALM      30.09F
OWATONNA       CLEAR     46  36  66 S9        30.10F
WASECA         CLEAR     43  36  75 SW5       30.11F
ALBERT LEA     CLEAR     48  36  61 SW6       30.11F
$$
MNZ078>079-086>088-094>096-230900-
   Southeast Minnesota

CITY           SKY/WX    TMP DP  RH WIND       PRES   REMARKS
ROCHESTER      CLEAR     46  36  68 SW13      30.11F
RED WING       CLEAR     43  37  81 CALM      30.07F
STANTON        CLEAR     47  37  68 S5        30.07F
DODGE CENTER   CLEAR     45  37  76 SW8       30.10F
WINONA         CLEAR     45  41  87 CALM      30.09F
AUSTIN         CLEAR     46  36  66 SW5       30.11F
PRESTON        CLEAR     45  33  61 SW9       30.12F
$$
ABBREVIATIONS USED IN REMARKS
   TC - TEMPERATURES IN CELSIUS
  WCI - WIND CHILL INDEX
   HX - HEAT INDEX
  VSB - VISIBILITY
$$



USA.gov is the U.S. government's official web portal to all federal, state and local government web resources and services.